Location: Flotzheim
(48.8375°N, 10.8136°E)
Time: 16:04:56
(UTC+00:00)

Meteor 2-5 Rocket - Pass Details

Date: 23 January 2021
Orbit: 833 x 911 km, 81.2° (Epoch: 28 February)

Event Time Altitude Azimuth Distance (km) Brightness Sun altitude
Rises 16:49:54 0° 199° (SSW) 3,390 7.5 -8.3°
Reaches altitude 10° 16:52:20 10° 203° (SSW) 2,452 6.8 -8.6°
Maximum altitude 16:57:50 64° 285° (WNW) 924 4.2 -9.5°
Drops below altitude 10° 17:03:21 10° 7° (N) 2,456 5.9 -10.4°
Sets 17:05:48 0° 10° (N) 3,396 6.6 -10.7°
